Tracking 29892 objects as of 21-Nov-2024
HD Live streaming from Space Station
objects crossing your sky now

SL-14 R/B

Track SL-14 R/B now!
10-day predictions
SL-14 R/B is classified as:


NORAD ID: 17912
Int'l Code: 1987-038B
Perigee: 609.2 km
Apogee: 634.6 km
Inclination: 82.5 °
Period: 97.0 minutes
Semi major axis: 6992 km
RCS: 4.8281 m2 (large)
Launch date: April 27, 1987
Source: Commonwealth of Independent States (former USSR) (CIS)
Launch site: PLESETSK MISSILE AND SPACE COMPLEX (PKMTR)

Note: This is a ROCKET BODY
Your satellite tracking list
Your tracking list is empty




NASA's NSSDC Master Catalog

Two Line Element Set (TLE):
1 17912U 87038B   24325.88750727  .00000896  00000-0  10302-3 0  9998
2 17912  82.5035  22.8628 0018139 291.3738  68.5541 14.84625410  8910
Source of the keplerian elements: AFSPC